STARLINK-1701 (46550 NORAD) Tracking and Keplerian Element Data

This shows tracking and keplerian element data for the satellite.

Feedback or suggestion? Click here.




ElementValue
Catalog46550
NameSTARLINK-1701
Epoch Orbit440
Epoch Day303.25001157
Epoch Year2020
RAAN330.094
Inclination52.9993
Eccentricity0.000131
Argument of Perigee63.9338
Mean Anonmoly177.1128
Mean Motion15.62825252
Decay Rate-5.301E-05
L11 46550U 20070U 20303.25001157 -.00005301 00000-0 -51944-4 0 9996
L22 46550 52.9993 330.0940 0001310 63.9338 177.1128 15.62825252 4408

Live tracking and technical data element details for STARLINK-1701 (NORAD 46550). STARLINK-1701 can be tracked NOW for your location showing map with azimuth and elevation plus other details from your city location.

Track the satellite on the map from your city or location and see movement details for azimuth, elevation, latitude, longitude, range, height, and movement on the map or in text.







IsCatalogInMostPopularTable: catalog: 46550, numindb: 3
Update: records affected: 1



GetName: 46550 STARLINK-1701

Hit Count: updated at: Fri, 30 Oct 2020 01:04:36 GMT